[[{"header":{"parameterUnit":"m.s-1","parameterCategory":1,"la1":30.2991,"la2":30.254,"lo1":-89.0895,"lo2":-89.0444,"dy":0.0017,"dx":0.0017,"nx":28,"ny":28,"refTime":"2024-06-11T03:00:00:Z","depth":0,"parameterNumber":2,"parameterNumberName":"U-component_of_WINDS"},"data":[0,0,0,0,0,0,0,0,0,0,0,0,0,0,0,0,0,0,0,0,0,0,0,0,0,0,0,0,0,0,0,0,0,0,0,0,0,0,0,0,0,0,0,0,0,0,0,0,0,0,0,0,0,0,0,0,0,0,-0.7337,-0.7336,0,-0.7252,-0.7251,-0.725,-0.7169,-0.7168,-0.7167,-0.7166,-0.7078,-0.7077,-0.7075,0,0,0,0,0,0,0,0,0,0,0,0,0,-0.7428,-0.7427,-0.7337,-0.7336,-0.7335,-0.7252,-0.7251,-0.725,-0.717,-0.7168,-0.7167,-0.7166,-0.7079,-0.7077,-0.7075,0,0,0,0,0,0,0,0,0,0,0,0,0,-0.7371,-0.7427,-0.7338,-0.7285,-0.728,-0.7253,-0.7251,-0.725,-0.717,-0.7168,-0.7167,-0.7165,-0.7079,-0.7077,-0.7075,-0.7093,0,0,-0.7069,-0.7068,0,0,0,0,0,0,0,0,-0.7374,-0.7367,-0.7294,-0.7289,-0.7283,-0.722,-0.7251,-0.7197,-0.717,-0.7212,-0.7166,-0.7165,-0.7126,-0.712,-0.7108,-0.7088,-0.7085,-0.7068,-0.7067,-0.7066,-0.7066,0,0,0,0,0,0,0,-0.7378,-0.7371,-0.7304,-0.7293,-0.7286,-0.7265,-0.7255,-0.724,-0.7179,-0.7208,-0.7202,-0.7193,-0.7123,-0.711,-0.7105,-0.7083,-0.7068,-0.7067,-0.7065,-0.7064,-0.7073,-0.7075,0,0,0,0,0,0,-0.739,-0.7374,-0.7306,-0.7301,-0.7325,-0.7265,-0.7254,-0.7242,-0.7179,-0.7167,-0.7194,-0.7189,-0.7114,-0.7108,-0.7102,-0.7118,-0.7066,-0.7064,-0.7063,-0.7072,-0.7074,-0.7075,0,0,0,0,0,0,-0.7393,-0.7385,-0.731,-0.7336,-0.7325,-0.7265,-0.7252,-0.7241,-0.7228,-0.7168,-0.7157,-0.7192,-0.7113,-0.7105,-0.7095,-0.7114,-0.7063,-0.7061,-0.707,-0.7072,-0.7075,-0.7151,0,0,0,0,0,0,-0.7396,-0.7386,-0.7393,-0.7337,-0.7324,-0.7306,-0.7253,-0.724,-0.7224,-0.7217,-0.7163,-0.7153,-0.7111,-0.7099,-0.7093,-0.711,-0.706,-0.7068,-0.7071,-0.7074,-0.7147,-0.7156,-0.7164,0,0,0,0,0,-0.7399,-0.7418,-0.7394,-0.7386,-0.7331,-0.7307,-0.73,-0.7251,-0.7226,-0.7232,-0.7194,-0.7155,-0.7113,-0.7099,-0.7092,-0.7108,-0.7067,-0.707,-0.7074,-0.7143,-0.7154,-0.7163,0,0,0,0,0,0,-0.7477,-0.7409,-0.7382,-0.7383,-0.7352,-0.7294,-0.73,-0.7264,-0.7239,-0.7233,-0.7174,-0.7162,-0.716,-0.7132,-0.7118,-0.7121,-0.7084,-0.7086,-0.7139,-0.7149,-0.7158,-0.7165,-0.7058,0,0,0,0,0,-0.7495,-0.7482,-0.7423,-0.7429,-0.7415,-0.736,-0.7348,-0.7313,-0.7278,-0.7264,-0.7225,-0.7192,-0.7171,-0.7158,-0.7136,-0.7142,-0.7129,-0.715,-0.7158,-0.7165,-0.7168,-0.7169,-0.7177,-0.7086,-0.7086,-0.7086,0,0,-0.7531,-0.7492,-0.7487,-0.7444,-0.7416,-0.7403,-0.735,-0.7338,-0.7328,-0.7262,-0.7251,-0.7222,-0.718,-0.7179,-0.7176,-0.7156,-0.719,-0.7169,-0.7176,-0.7174,-0.7173,-0.7182,-0.719,-0.7089,-0.7088,-0.7088,0,0,-0.759,-0.7559,-0.7561,-0.7534,-0.7491,-0.7454,-0.7455,-0.7402,-0.738,-0.7368,-0.7318,-0.7305,-0.727,-0.7243,-0.7224,-0.7272,-0.7235,-0.7266,-0.731,-0.7312,-0.7319,-0.7325,-0.7342,-0.7349,-0.7269,-0.7269,-0.7269,0,-0.764,-0.7619,-0.7567,-0.7559,-0.7541,-0.7481,-0.7482,-0.7458,-0.741,-0.7399,-0.7377,-0.7332,-0.73,-0.7291,-0.7303,-0.729,-0.7288,-0.7272,-0.7322,-0.7328,-0.7333,-0.7348,-0.7355,-0.7273,-0.7273,-0.7272,-0.7272,0,-0.7683,-0.7669,-0.7676,-0.7632,-0.7614,-0.7611,-0.7558,-0.7547,-0.7513,-0.7479,-0.7467,-0.7426,-0.7394,-0.7389,-0.7357,-0.7376,-0.7365,-0.7334,-0.7295,-0.7346,-0.736,-0.7366,-0.7279,-0.7278,-0.7276,-0.7275,0,0,-0.779,-0.7716,-0.772,-0.7699,-0.7647,-0.7635,-0.7628,-0.7598,-0.7589,-0.7558,-0.7551,-0.7522,-0.7493,-0.7472,-0.7435,-0.7437,-0.7477,-0.7405,-0.7403,-0.742,-0.7496,-0.7521,-0.7529,-0.7452,-0.7453,-0.7454,-0.75,0,-0.7841,-0.7826,-0.7779,-0.7779,-0.7765,-0.7707,-0.7701,-0.7669,-0.7636,-0.7619,-0.7582,-0.7563,-0.7526,-0.7513,-0.7511,-0.7473,-0.7492,-0.7469,-0.7445,-0.7445,-0.7458,-0.7536,-0.7561,-0.7607,-0.7505,-0.7505,-0.7506,0,-0.7898,-0.7871,-0.787,-0.7818,-0.7811,-0.7807,-0.7774,-0.7759,-0.772,-0.7696,-0.7673,-0.7632,-0.7621,-0.7585,-0.7569,-0.7554,-0.7541,-0.7521,-0.7521,-0.7518,-0.7479,-0.7535,-0.762,-0.7627,-0.7514,-0.7513,-0.7513,0,-0.7977,-0.794,-0.7934,-0.7918,-0.7858,-0.7856,-0.7831,-0.779,-0.7775,-0.7746,-0.7735,-0.7705,-0.7689,-0.7667,-0.7619,-0.7597,-0.7608,-0.7568,-0.7588,-0.7589,-0.7594,-0.7594,-0.7679,-0.7585,-0.7584,-0.7584,-0.7584,0,-0.8039,-0.8041,-0.7969,-0.7966,-0.7966,-0.791,-0.7911,-0.788,-0.7845,-0.7834,-0.7781,-0.7772,-0.7709,-0.7692,-0.7654,-0.7647,-0.7639,-0.7619,-0.761,-0.7625,-0.7627,-0.7616,-0.7612,-0.7586,-0.7586,-0.7585,-0.7585,0,-0.8128,-0.808,-0.807,-0.8013,-0.7999,-0.8001,-0.7952,-0.7946,-0.791,-0.7897,-0.7891,-0.7834,-0.7811,-0.7761,-0.7724,-0.7699,-0.7701,-0.7683,-0.7715,-0.7708,-0.7731,-0.773,-0.7812,-0.782,-0.7721,-0.7722,-0.7723,0,-0.8171,-0.8171,-0.8114,-0.8103,-0.808,-0.8063,-0.8047,-0.7992,-0.7977,-0.7933,-0.7932,-0.7906,-0.7882,-0.7848,-0.7803,-0.7775,-0.7756,-0.7786,-0.7751,-0.7766,-0.7757,-0.7758,-0.7757,-0.7795,-0.7796,-0.7797,-0.7798,0,-0.8253,-0.8229,-0.8208,-0.8179,-0.8161,-0.8135,-0.8106,-0.81,-0.8037,-0.8023,-0.8,-0.7981,-0.7944,-0.7918,-0.7883,-0.7856,-0.7817,-0.7809,-0.7812,-0.7828,-0.7847,-0.7838,-0.7737,-0.7808,-0.7807,-0.7806,-0.7806,-0.7805,-0.832,-0.8317,-0.8277,-0.8255,-0.8227,-0.8202,-0.8193,-0.8156,-0.8136,-0.8102,-0.807,-0.805,-0.801,-0.7959,-0.7934,-0.7917,-0.7897,-0.7902,-0.7903,-0.7905,-0.7912,-0.7849,-0.791,-0.791,-0.791,-0.7909,-0.7909,0,-0.84,-0.8371,-0.8351,-0.8312,-0.8295,-0.8259,-0.8225,-0.8213,-0.8196,-0.8163,-0.814,-0.8113,-0.8087,-0.804,-0.801,-0.8006,-0.7987,-0.8,-0.8,-0.7994,-0.7931,-0.7932,-0.8015,-0.8015,-0.8015,-0.8015,-0.8015,-0.8015,-0.8439,-0.8432,-0.8404,-0.8383,-0.8353,-0.8333,-0.8317,-0.8292,-0.8265,-0.8238,-0.8216,-0.8186,-0.8146,-0.8113,-0.8088,-0.8075,-0.8066,-0.8085,-0.8067,-0.8009,-0.7999,-0.7989,-0.7989,-0.8084,-0.8084,-0.8131,-0.8131,-0.8132]},{"header":{"parameterUnit":"m.s-1","parameterCategory":1,"la1":30.2991,"la2":30.254,"lo1":-89.0895,"lo2":-89.0444,"dy":0.0017,"dx":0.0017,"nx":28,"ny":28,"refTime":"2024-06-11T03:00:00:Z","depth":0,"parameterNumber":3,"parameterNumberName":"V-component_of_WINDS"},"data":[0,0,0,0,0,0,0,0,0,0,0,0,0,0,0,0,0,0,0,0,0,0,0,0,0,0,0,0,0,0,0,0,0,0,0,0,0,0,0,0,0,0,0,0,0,0,0,0,0,0,0,0,0,0,0,0,0,0,0.4294,0.4292,0,0.4159,0.4158,0.4156,0.4068,0.4068,0.4067,0.4067,0.3927,0.3924,0.3921,0,0,0,0,0,0,0,0,0,0,0,0,0,0.4475,0.4472,0.4294,0.4292,0.4291,0.416,0.4158,0.4156,0.4069,0.4068,0.4067,0.4067,0.3928,0.3924,0.3921,0,0,0,0,0,0,0,0,0,0,0,0,0,0.4374,0.4471,0.4294,0.4231,0.4224,0.416,0.4158,0.4155,0.4069,0.4068,0.4067,0.4066,0.3929,0.3925,0.392,0.3907,0,0,0.3905,0.3903,0,0,0,0,0,0,0,0,0.438,0.4367,0.4242,0.4235,0.4228,0.413,0.417,0.4072,0.4069,0.4128,0.4067,0.4066,0.3995,0.3985,0.3961,0.3901,0.3895,0.3905,0.3902,0.39,0.3899,0,0,0,0,0,0,0,0.4387,0.4373,0.4241,0.424,0.4232,0.421,0.4194,0.4151,0.4068,0.4122,0.4116,0.4101,0.3991,0.3966,0.3958,0.3893,0.3905,0.3901,0.3898,0.3896,0.3817,0.3817,0,0,0,0,0,0,0.4404,0.4379,0.4245,0.4237,0.4303,0.4207,0.419,0.4162,0.4068,0.4053,0.4102,0.4098,0.3975,0.3963,0.3952,0.3932,0.39,0.3896,0.3893,0.3816,0.3817,0.3818,0,0,0,0,0,0,0.4408,0.4393,0.425,0.4306,0.4286,0.4205,0.4174,0.416,0.4135,0.4053,0.4037,0.4092,0.3974,0.3959,0.392,0.3926,0.3893,0.3889,0.3815,0.3816,0.3817,0.3891,0,0,0,0,0,0,0.4414,0.4395,0.4389,0.4306,0.4284,0.422,0.4175,0.4158,0.4127,0.412,0.4039,0.4025,0.3972,0.3927,0.3915,0.3918,0.3885,0.3814,0.3815,0.3817,0.3887,0.3894,0.39,0,0,0,0,0,0.442,0.4414,0.4389,0.4373,0.4275,0.4221,0.4207,0.4147,0.4128,0.4122,0.4069,0.4027,0.3928,0.3924,0.3909,0.3912,0.3813,0.3815,0.3817,0.3884,0.3893,0.39,0,0,0,0,0,0,0.4498,0.4402,0.4373,0.434,0.429,0.4206,0.4196,0.4158,0.4111,0.4106,0.4033,0.4015,0.3984,0.3943,0.3941,0.3895,0.3866,0.3864,0.3922,0.3929,0.3936,0.3945,0.3881,0,0,0,0,0,0.4511,0.4476,0.4394,0.4373,0.4349,0.4277,0.4251,0.421,0.4154,0.4132,0.4076,0.4023,0.398,0.3952,0.3908,0.3882,0.3863,0.3876,0.3883,0.3889,0.3888,0.3872,0.3877,0.3823,0.3823,0.3823,0,0,0.4538,0.4482,0.4463,0.4387,0.4343,0.4308,0.4259,0.4224,0.4197,0.4126,0.4085,0.4044,0.398,0.3947,0.393,0.3913,0.3899,0.3891,0.3896,0.3892,0.3875,0.388,0.3885,0.3824,0.3824,0.3824,0,0,0.4569,0.4523,0.4501,0.4458,0.4392,0.4345,0.434,0.4263,0.4233,0.4191,0.4138,0.4105,0.4032,0.3989,0.3958,0.3976,0.3936,0.3964,0.3997,0.3982,0.3987,0.399,0.3997,0.4,0.3964,0.3964,0.3964,0,0.461,0.4556,0.4494,0.4462,0.443,0.4366,0.4344,0.4305,0.4228,0.4208,0.419,0.4098,0.4051,0.4008,0.4013,0.399,0.3982,0.3972,0.3991,0.3994,0.3996,0.4002,0.4005,0.3968,0.3967,0.3967,0.3967,0,0.461,0.4574,0.4564,0.4492,0.446,0.4433,0.4367,0.4342,0.4304,0.4259,0.4219,0.416,0.4103,0.409,0.4052,0.4043,0.4034,0.4005,0.3973,0.4006,0.401,0.4012,0.3973,0.3972,0.3971,0.397,0,0,0.4683,0.4581,0.4578,0.4546,0.447,0.444,0.4412,0.4357,0.4337,0.4287,0.4261,0.4202,0.4175,0.414,0.4097,0.4084,0.4104,0.4057,0.4054,0.4067,0.4091,0.4113,0.4116,0.4078,0.4078,0.4078,0.4096,0,0.4703,0.4647,0.4592,0.4556,0.4522,0.4463,0.4437,0.4388,0.4346,0.4311,0.4264,0.4224,0.4192,0.417,0.4155,0.4105,0.4107,0.4103,0.4053,0.4052,0.407,0.4118,0.4141,0.416,0.4097,0.4098,0.4098,0,0.4717,0.4672,0.4633,0.4563,0.4546,0.4525,0.4472,0.4439,0.4383,0.4353,0.4316,0.4271,0.4238,0.4212,0.4165,0.4163,0.414,0.4113,0.4112,0.4104,0.4076,0.4111,0.4165,0.4168,0.41,0.4099,0.4099,0,0.4775,0.4704,0.4672,0.4646,0.4563,0.455,0.4514,0.4458,0.4429,0.4383,0.4364,0.4315,0.4287,0.425,0.4193,0.4179,0.4153,0.4122,0.4128,0.4129,0.4123,0.4124,0.4174,0.411,0.411,0.411,0.411,0,0.4802,0.4781,0.4697,0.4677,0.4652,0.459,0.4567,0.4526,0.4477,0.4448,0.4394,0.4368,0.4295,0.4261,0.4217,0.4185,0.4173,0.4149,0.4137,0.4153,0.4156,0.4136,0.4133,0.411,0.411,0.411,0.411,0,0.4861,0.4804,0.4766,0.4691,0.4672,0.4657,0.4593,0.4572,0.4529,0.4493,0.4482,0.4412,0.437,0.431,0.4249,0.4219,0.4194,0.4176,0.4213,0.4206,0.4215,0.4215,0.4252,0.4254,0.419,0.4191,0.4192,0,0.4881,0.4864,0.4789,0.4766,0.4734,0.4698,0.4669,0.4608,0.458,0.4517,0.4504,0.4457,0.4417,0.4352,0.4296,0.4249,0.4229,0.4245,0.4221,0.4239,0.4229,0.423,0.4229,0.425,0.4252,0.4252,0.4253,0,0.4924,0.4898,0.4859,0.4811,0.4779,0.4738,0.4695,0.4679,0.4609,0.4581,0.4537,0.4506,0.4445,0.44,0.4346,0.4309,0.427,0.4262,0.426,0.4276,0.4299,0.4287,0.4228,0.426,0.426,0.4259,0.4259,0.4258,0.4964,0.4946,0.4891,0.4851,0.4812,0.4773,0.4751,0.4705,0.4668,0.4614,0.458,0.4538,0.4485,0.4409,0.4374,0.4341,0.4325,0.4323,0.4322,0.4323,0.4329,0.4305,0.4331,0.4331,0.4331,0.433,0.433,0,0.5004,0.4966,0.4929,0.4871,0.484,0.4807,0.4758,0.4734,0.4698,0.4652,0.4614,0.4565,0.4521,0.4463,0.4416,0.4401,0.4381,0.439,0.439,0.4383,0.4346,0.4351,0.4407,0.4407,0.4407,0.4407,0.4407,0.4407,0.502,0.4989,0.4957,0.4907,0.4869,0.4829,0.4804,0.4768,0.4731,0.4679,0.4643,0.4606,0.4555,0.4504,0.4463,0.4447,0.4432,0.4447,0.4426,0.4392,0.4385,0.4378,0.4383,0.4444,0.4444,0.4465,0.4465,0.4465]}]]